Location: Adams
(39.9979°N, 79.0290°W)
Time: 04:54:47
(UTC+00:00)

ISS - Visible Passes

Search period start: 21 October 2021 00:00
Search period end: 31 October 2021 00:00
Orbit: 417 x 423 km, 51.6° (Epoch: 20 October)

Date Brightness Start Highest point End Pass type
(mag) Time Alt. Az. Time Alt. Az. Time Alt. Az.
21 Oct -1.8 10:23:25 10° SSW 10:26:22 29° SE 10:29:20 10° ENE visible
22 Oct -1.1 09:37:43 13° SSE 09:39:15 17° SE 09:41:31 10° E visible
23 Oct -3.8 10:26:10 20° SW 10:28:24 88° NW 10:31:47 10° NE visible
24 Oct -3.0 09:41:20 50° ESE 09:41:20 50° ESE 09:44:20 10° ENE visible
25 Oct -0.3 08:56:17 12° ENE 08:56:17 12° ENE 08:56:39 10° ENE visible
25 Oct -2.9 10:29:16 25° WNW 10:30:26 33° NNW 10:33:32 10° NE visible
26 Oct -2.4 09:44:02 32° NNE 09:44:02 32° NNE 09:46:09 10° NE visible
27 Oct -1.9 10:31:36 17° NW 10:32:25 18° NNW 10:34:51 10° NNE visible
28 Oct -1.5 09:46:03 18° NNE 09:46:03 18° NNE 09:47:24 10° NNE visible
29 Oct -1.4 10:33:22 12° NNW 10:34:21 13° N 10:35:57 10° NNE visible
30 Oct -1.1 09:47:36 13° N 09:47:36 13° N 09:48:21 10° NNE visible
